Estación de San Pedro

Ultimos registro cada 15 minutos 25
Estación Fecha / Hora Temperatura Humedad Lluvia Velocidad Dirección Radiación Presion
25 San Pedro 07-05-2026 06:00 9,9 89,9 0 0,5 296 0,6 1008,1
24 San Pedro 07-05-2026 05:45 10,1 89,3 0 0 284 0,6 1008
23 San Pedro 07-05-2026 05:30 9,6 91,4 0 0 42 0,6 1007,9
22 San Pedro 07-05-2026 05:15 8,7 93,4 0 0 253 0,6 1007,8
21 San Pedro 07-05-2026 05:00 7,8 98,4 0 0 260 0,6 1007,6
20 San Pedro 07-05-2026 04:45 7,7 95,8 0 0 265 0,6 1007,4
19 San Pedro 07-05-2026 04:30 8,3 95,4 0 0 264 0,6 1007,1
18 San Pedro 07-05-2026 04:15 9,3 92 0 0 160 0,6 1007,1
17 San Pedro 07-05-2026 04:00 10,1 89 0 1 256 0,6 1007,1
16 San Pedro 07-05-2026 03:45 10,3 88,6 0 0 307 0,6 1007,2
15 San Pedro 07-05-2026 03:30 10,4 89,2 0 0 336 0,6 1007,4
14 San Pedro 07-05-2026 03:15 10,7 86,1 0 1,5 77 0,6 1007,5
13 San Pedro 07-05-2026 03:00 9 93,9 0 0 55 0,6 1007,7
12 San Pedro 07-05-2026 02:45 8,4 95,2 0 0 0 0,6 1007,6
11 San Pedro 07-05-2026 02:30 9 95,4 0 0 55 0,6 1007,4
10 San Pedro 07-05-2026 02:15 9,7 93,5 0 0 53 0,6 1007,3
9 San Pedro 07-05-2026 02:00 10,9 87,4 0 0 14 0,6 1007,3
8 San Pedro 07-05-2026 01:45 11,3 84,7 0 0 74 0,6 1007,4
7 San Pedro 07-05-2026 01:30 11,3 85,5 0 0 295 0,6 1007,3
6 San Pedro 07-05-2026 01:15 11 92,4 0 0 250 0,6 1007
5 San Pedro 07-05-2026 01:00 11,3 88,9 0 0 258 0,6 1007,2
4 San Pedro 07-05-2026 00:45 11,3 89,3 0 0 251 0,6 1007,1
3 San Pedro 07-05-2026 00:30 11,3 88,6 0 0 237 0,6 1007,2
2 San Pedro 07-05-2026 00:15 11,3 89,7 0 0 244 0,6 1007,3
1 San Pedro 07-05-2026 00:00 11,5 87,2 0 0 240 0,6 1006,9